Year,Month,Day,Hour,Minute,Value (Times are PST for temperature in C)
2014,04,28,00,00,4.00
2014,04,28,00,01,4.00
2014,04,28,00,02,4.00
2014,04,28,00,03,4.00
2014,04,28,00,04,4.00
2014,04,28,00,05,4.00
2014,04,28,00,06,4.00
2014,04,28,00,07,4.00
2014,04,28,00,08,4.00
2014,04,28,00,09,4.00
2014,04,28,00,10,4.00
2014,04,28,00,11,4.00
2014,04,28,00,12,4.00
2014,04,28,00,13,4.00
2014,04,28,00,14,4.00
2014,04,28,00,15,4.00
2014,04,28,00,16,3.90
2014,04,28,00,17,3.90
2014,04,28,00,18,3.90
2014,04,28,00,19,3.90
2014,04,28,00,20,3.90
2014,04,28,00,21,3.90
2014,04,28,00,22,3.90
2014,04,28,00,23,3.90
2014,04,28,00,24,3.90
2014,04,28,00,25,3.90
2014,04,28,00,26,3.90
2014,04,28,00,27,3.80
2014,04,28,00,28,3.80
2014,04,28,00,29,3.80
2014,04,28,00,30,3.80
2014,04,28,00,31,3.80
2014,04,28,00,32,3.80
2014,04,28,00,33,3.80
2014,04,28,00,34,3.80
2014,04,28,00,35,3.80
2014,04,28,00,36,3.80
2014,04,28,00,37,3.80
2014,04,28,00,38,3.80
2014,04,28,00,39,3.80
2014,04,28,00,40,3.80
2014,04,28,00,41,3.80
2014,04,28,00,42,3.80
2014,04,28,00,43,3.80
2014,04,28,00,44,3.80
2014,04,28,00,45,3.80
2014,04,28,00,46,3.80
2014,04,28,00,47,3.80
2014,04,28,00,48,3.80
2014,04,28,00,49,3.80
2014,04,28,00,50,3.80
2014,04,28,00,51,3.80
2014,04,28,00,52,3.80
2014,04,28,00,53,3.70
2014,04,28,00,54,3.70
2014,04,28,00,55,3.70
2014,04,28,00,56,3.70
2014,04,28,00,57,3.70
2014,04,28,00,58,3.70
2014,04,28,00,59,3.70
2014,04,28,01,00,3.70
2014,04,28,01,01,3.70
2014,04,28,01,02,3.70
2014,04,28,01,03,3.70
2014,04,28,01,04,3.70
2014,04,28,01,05,3.70
2014,04,28,01,06,3.80
2014,04,28,01,07,3.80
2014,04,28,01,08,3.80
2014,04,28,01,09,3.80
2014,04,28,01,10,3.80
2014,04,28,01,11,3.80
2014,04,28,01,12,3.80
2014,04,28,01,13,3.80
2014,04,28,01,14,3.80
2014,04,28,01,15,3.80
2014,04,28,01,16,3.80
2014,04,28,01,17,3.80
2014,04,28,01,18,3.80
2014,04,28,01,19,3.80
2014,04,28,01,20,3.80
2014,04,28,01,21,3.80
2014,04,28,01,22,3.80
2014,04,28,01,23,3.80
2014,04,28,01,24,3.80
2014,04,28,01,25,3.80
2014,04,28,01,26,3.80
2014,04,28,01,27,3.80
2014,04,28,01,28,3.80
2014,04,28,01,29,3.80
2014,04,28,01,30,3.80
2014,04,28,01,31,3.80
2014,04,28,01,32,3.80
2014,04,28,01,33,3.80
2014,04,28,01,34,3.80
2014,04,28,01,35,3.80
2014,04,28,01,36,3.80
2014,04,28,01,37,3.80
2014,04,28,01,38,3.80
2014,04,28,01,39,3.80
2014,04,28,01,40,3.80
2014,04,28,01,41,3.90
2014,04,28,01,42,3.90
2014,04,28,01,43,3.90
2014,04,28,01,44,3.90
2014,04,28,01,45,3.90
2014,04,28,01,46,3.90
2014,04,28,01,47,3.90
2014,04,28,01,48,3.90
2014,04,28,01,49,3.90
2014,04,28,01,50,3.90
2014,04,28,01,51,3.90
2014,04,28,01,52,3.90
2014,04,28,01,53,3.90
2014,04,28,01,54,3.90
2014,04,28,01,55,3.90
2014,04,28,01,56,4.00
2014,04,28,01,57,3.90
2014,04,28,01,58,4.00
2014,04,28,01,59,4.00
2014,04,28,02,00,4.00
2014,04,28,02,01,4.00
2014,04,28,02,02,4.00
2014,04,28,02,03,4.00
2014,04,28,02,04,4.00
2014,04,28,02,05,4.00
2014,04,28,02,06,4.00
2014,04,28,02,07,4.00
2014,04,28,02,08,4.00
2014,04,28,02,09,4.00
2014,04,28,02,10,4.00
2014,04,28,02,11,4.00
2014,04,28,02,12,4.00
2014,04,28,02,13,4.00
2014,04,28,02,14,4.00
2014,04,28,02,15,4.00
2014,04,28,02,16,4.00
2014,04,28,02,17,4.00
2014,04,28,02,18,4.00
2014,04,28,02,19,4.00
2014,04,28,02,20,4.00
2014,04,28,02,21,4.00
2014,04,28,02,22,4.00
2014,04,28,02,23,3.90
2014,04,28,02,24,3.90
2014,04,28,02,25,3.90
2014,04,28,02,26,3.90
2014,04,28,02,27,3.90
2014,04,28,02,28,3.90
2014,04,28,02,29,3.90
2014,04,28,02,30,3.90
2014,04,28,02,31,3.90
2014,04,28,02,32,3.90
2014,04,28,02,33,3.90
2014,04,28,02,34,3.80
2014,04,28,02,35,3.80
2014,04,28,02,36,3.80
2014,04,28,02,37,3.80
2014,04,28,02,38,3.80
2014,04,28,02,39,3.80
2014,04,28,02,40,3.80
2014,04,28,02,41,3.80
2014,04,28,02,42,3.80
2014,04,28,02,43,3.80
2014,04,28,02,44,3.70
2014,04,28,02,45,3.70
2014,04,28,02,46,3.70
2014,04,28,02,47,3.70
2014,04,28,02,48,3.70
2014,04,28,02,49,3.70
2014,04,28,02,50,3.70
2014,04,28,02,51,3.70
2014,04,28,02,52,3.70
2014,04,28,02,53,3.70
2014,04,28,02,54,3.70
2014,04,28,02,55,3.70
2014,04,28,02,56,3.70
2014,04,28,02,57,3.70
2014,04,28,02,58,3.70
2014,04,28,02,59,3.70
2014,04,28,03,00,3.70
2014,04,28,03,01,3.70
2014,04,28,03,02,3.70
2014,04,28,03,03,3.70
2014,04,28,03,04,3.70
2014,04,28,03,05,3.70
2014,04,28,03,06,3.70
2014,04,28,03,07,3.60
2014,04,28,03,08,3.60
2014,04,28,03,09,3.60
2014,04,28,03,10,3.60
2014,04,28,03,11,3.60
2014,04,28,03,12,3.60
2014,04,28,03,13,3.60
2014,04,28,03,14,3.60
2014,04,28,03,15,3.60
2014,04,28,03,16,3.60
2014,04,28,03,17,3.60
2014,04,28,03,18,3.60
2014,04,28,03,19,3.60
2014,04,28,03,20,3.70
2014,04,28,03,21,3.70
2014,04,28,03,22,3.70
2014,04,28,03,23,3.70
2014,04,28,03,24,3.70
2014,04,28,03,25,3.80
2014,04,28,03,26,3.80
2014,04,28,03,27,3.90
2014,04,28,03,28,3.90
2014,04,28,03,29,4.00
2014,04,28,03,30,4.00
2014,04,28,03,31,4.10
2014,04,28,03,32,4.20
2014,04,28,03,33,4.20
2014,04,28,03,34,4.30
2014,04,28,03,35,4.40
2014,04,28,03,36,4.50
2014,04,28,03,37,4.50
2014,04,28,03,38,4.60
2014,04,28,03,39,4.60
2014,04,28,03,40,4.60
2014,04,28,03,41,4.60
2014,04,28,03,42,4.70
2014,04,28,03,43,4.70
2014,04,28,03,44,4.70
2014,04,28,03,45,4.70
2014,04,28,03,46,4.70
2014,04,28,03,47,4.70
2014,04,28,03,48,4.70
2014,04,28,03,49,4.70
2014,04,28,03,50,4.70
2014,04,28,03,51,4.70
2014,04,28,03,52,4.80
2014,04,28,03,53,4.80
2014,04,28,03,54,4.80
2014,04,28,03,55,4.80
2014,04,28,03,56,4.80
2014,04,28,03,57,4.80
2014,04,28,03,58,4.80
2014,04,28,03,59,4.80
2014,04,28,04,00,4.80
2014,04,28,04,01,4.80
2014,04,28,04,02,4.80
2014,04,28,04,03,4.80
2014,04,28,04,04,4.80
2014,04,28,04,05,4.90
2014,04,28,04,06,4.90
2014,04,28,04,07,4.90
2014,04,28,04,08,4.90
2014,04,28,04,09,4.90
2014,04,28,04,10,5.00
2014,04,28,04,11,5.00
2014,04,28,04,12,5.00
2014,04,28,04,13,5.00
2014,04,28,04,14,5.00
2014,04,28,04,15,5.00
2014,04,28,04,16,5.00
2014,04,28,04,17,5.00
2014,04,28,04,18,5.00
2014,04,28,04,19,5.00
2014,04,28,04,20,5.00
2014,04,28,04,21,5.00
2014,04,28,04,22,5.00
2014,04,28,04,23,5.00
2014,04,28,04,24,5.00
2014,04,28,04,25,5.00
2014,04,28,04,26,5.00
2014,04,28,04,27,5.00
2014,04,28,04,28,5.00
2014,04,28,04,29,5.00
2014,04,28,04,30,5.00
2014,04,28,04,31,5.00
2014,04,28,04,32,5.00
2014,04,28,04,33,4.90
2014,04,28,04,34,4.90
2014,04,28,04,35,4.90
2014,04,28,04,36,4.90
2014,04,28,04,37,4.90
2014,04,28,04,38,4.90
2014,04,28,04,39,4.90
2014,04,28,04,40,4.90
2014,04,28,04,41,4.80
2014,04,28,04,42,4.80
2014,04,28,04,43,4.80
2014,04,28,04,44,4.80
2014,04,28,04,45,4.80
2014,04,28,04,46,4.80
2014,04,28,04,47,4.80
2014,04,28,04,48,4.80
2014,04,28,04,49,4.80
2014,04,28,04,50,4.80
2014,04,28,04,51,4.70
2014,04,28,04,52,4.70
2014,04,28,04,53,4.70
2014,04,28,04,54,4.70
2014,04,28,04,55,4.70
2014,04,28,04,56,4.70
2014,04,28,04,57,4.70
2014,04,28,04,58,4.70
2014,04,28,04,59,4.70
2014,04,28,05,00,4.70
2014,04,28,05,01,4.70
2014,04,28,05,02,4.70
2014,04,28,05,03,4.70
2014,04,28,05,04,4.70
2014,04,28,05,05,4.70
2014,04,28,05,06,4.70
2014,04,28,05,07,4.70
2014,04,28,05,08,4.60
2014,04,28,05,09,4.60
2014,04,28,05,10,4.60
2014,04,28,05,11,4.60
2014,04,28,05,12,4.60
2014,04,28,05,13,4.60
2014,04,28,05,14,4.60
2014,04,28,05,15,4.60
2014,04,28,05,16,4.60
2014,04,28,05,17,4.60
2014,04,28,05,18,4.60
2014,04,28,05,19,4.60
2014,04,28,05,20,4.70
2014,04,28,05,21,4.70
2014,04,28,05,22,4.70
2014,04,28,05,23,4.70
2014,04,28,05,24,4.70
2014,04,28,05,25,4.70
2014,04,28,05,26,4.70
2014,04,28,05,27,4.70
2014,04,28,05,28,4.70
2014,04,28,05,29,4.70
2014,04,28,05,30,4.60
2014,04,28,05,31,4.60
2014,04,28,05,32,4.60
2014,04,28,05,33,4.60
2014,04,28,05,34,4.60
2014,04,28,05,35,4.60
2014,04,28,05,36,4.50
2014,04,28,05,37,4.50
2014,04,28,05,38,4.50
2014,04,28,05,39,4.40
2014,04,28,05,40,4.40
2014,04,28,05,41,4.30
2014,04,28,05,42,4.30
2014,04,28,05,43,4.20
2014,04,28,05,44,4.20
2014,04,28,05,45,4.20
2014,04,28,05,46,4.20
2014,04,28,05,47,4.10
2014,04,28,05,48,4.10
2014,04,28,05,49,4.10
2014,04,28,05,50,4.10
2014,04,28,05,51,4.00
2014,04,28,05,52,4.00
2014,04,28,05,53,4.00
2014,04,28,05,54,4.00
2014,04,28,05,55,4.00
2014,04,28,05,56,4.00
2014,04,28,05,57,4.00
2014,04,28,05,58,4.00
2014,04,28,05,59,4.00
2014,04,28,06,00,4.00
2014,04,28,06,01,4.00
2014,04,28,06,02,4.00
2014,04,28,06,03,3.90
2014,04,28,06,04,3.90
2014,04,28,06,05,3.90
2014,04,28,06,06,3.90
2014,04,28,06,07,3.90
2014,04,28,06,08,3.80
2014,04,28,06,09,3.80
2014,04,28,06,10,3.80
2014,04,28,06,11,3.80
2014,04,28,06,12,3.80
2014,04,28,06,13,3.80
2014,04,28,06,14,3.80
2014,04,28,06,15,3.80
2014,04,28,06,16,3.80
2014,04,28,06,17,3.80
2014,04,28,06,18,3.80
2014,04,28,06,19,3.80
2014,04,28,06,20,3.80
2014,04,28,06,21,3.80
2014,04,28,06,22,3.80
2014,04,28,06,23,3.80
2014,04,28,06,24,3.80
2014,04,28,06,25,3.80
2014,04,28,06,26,3.80
2014,04,28,06,27,3.80
2014,04,28,06,28,3.80
2014,04,28,06,29,3.70
2014,04,28,06,30,3.80
2014,04,28,06,31,3.70
2014,04,28,06,32,3.70
2014,04,28,06,33,3.70
2014,04,28,06,34,3.70
2014,04,28,06,35,3.70
2014,04,28,06,36,3.70
2014,04,28,06,37,3.70
2014,04,28,06,38,3.70
2014,04,28,06,39,3.70
2014,04,28,06,40,3.70
2014,04,28,06,41,3.70
2014,04,28,06,42,3.70
2014,04,28,06,43,3.70
2014,04,28,06,44,3.70
2014,04,28,06,45,3.70
2014,04,28,06,46,3.70
2014,04,28,06,47,3.70
2014,04,28,06,48,3.70
2014,04,28,06,49,3.70
2014,04,28,06,50,3.70
2014,04,28,06,51,3.70
2014,04,28,06,52,3.70
2014,04,28,06,53,3.70
2014,04,28,06,54,3.70
2014,04,28,06,55,3.70
2014,04,28,06,56,3.70
2014,04,28,06,57,3.70
2014,04,28,06,58,3.70
2014,04,28,06,59,3.70
2014,04,28,07,00,3.70
2014,04,28,07,01,3.70
2014,04,28,07,02,3.70
2014,04,28,07,03,3.70
2014,04,28,07,04,3.70
2014,04,28,07,05,3.70
2014,04,28,07,06,3.80
2014,04,28,07,07,3.80
2014,04,28,07,08,3.80
2014,04,28,07,09,3.80
2014,04,28,07,10,3.90
2014,04,28,07,11,3.90
2014,04,28,07,12,4.00
2014,04,28,07,13,4.00
2014,04,28,07,14,4.00
2014,04,28,07,15,4.10
2014,04,28,07,16,4.10
2014,04,28,07,17,4.10
2014,04,28,07,18,4.10
2014,04,28,07,19,4.10
2014,04,28,07,20,4.10
2014,04,28,07,21,4.10
2014,04,28,07,22,4.10
2014,04,28,07,23,4.10
2014,04,28,07,24,4.10
2014,04,28,07,25,4.20
2014,04,28,07,26,4.20
2014,04,28,07,27,4.20
2014,04,28,07,28,4.20
2014,04,28,07,29,4.30
2014,04,28,07,30,4.30
2014,04,28,07,31,4.30
2014,04,28,07,32,4.40
2014,04,28,07,33,4.40
2014,04,28,07,34,4.50
2014,04,28,07,35,4.60
2014,04,28,07,36,4.60
2014,04,28,07,37,4.70
2014,04,28,07,38,4.80
2014,04,28,07,39,4.80
2014,04,28,07,40,4.90
2014,04,28,07,41,4.90
2014,04,28,07,42,5.00
2014,04,28,07,43,5.00
2014,04,28,07,44,5.00
2014,04,28,07,45,5.10
2014,04,28,07,46,5.10
2014,04,28,07,47,5.10
2014,04,28,07,48,5.20
2014,04,28,07,49,5.20
2014,04,28,07,50,5.30
2014,04,28,07,51,5.30
2014,04,28,07,52,5.30
2014,04,28,07,53,5.30
2014,04,28,07,54,5.30
2014,04,28,07,55,5.40
2014,04,28,07,56,5.40
2014,04,28,07,57,5.50
2014,04,28,07,58,5.50
2014,04,28,07,59,5.50
2014,04,28,08,00,5.60
2014,04,28,08,01,5.70
2014,04,28,08,02,5.80
2014,04,28,08,03,5.80
2014,04,28,08,04,5.90
2014,04,28,08,05,6.00
2014,04,28,08,06,6.00
2014,04,28,08,07,6.10
2014,04,28,08,08,6.20
2014,04,28,08,09,6.20
2014,04,28,08,10,6.30
2014,04,28,08,11,6.30
2014,04,28,08,12,6.40
2014,04,28,08,13,6.40
2014,04,28,08,14,6.50
2014,04,28,08,15,6.60
2014,04,28,08,16,6.60
2014,04,28,08,17,6.70
2014,04,28,08,18,6.80
2014,04,28,08,19,6.80
2014,04,28,08,20,6.90
2014,04,28,08,21,7.00
2014,04,28,08,22,7.00
2014,04,28,08,23,7.10
2014,04,28,08,24,7.10
2014,04,28,08,25,7.20
2014,04,28,08,26,7.20
2014,04,28,08,27,7.30
2014,04,28,08,28,7.30
2014,04,28,08,29,7.40
2014,04,28,08,30,7.40
2014,04,28,08,31,7.40
2014,04,28,08,32,7.50
2014,04,28,08,33,7.60
2014,04,28,08,34,7.60
2014,04,28,08,35,7.70
2014,04,28,08,36,7.80
2014,04,28,08,37,7.80
2014,04,28,08,38,7.90
2014,04,28,08,39,8.00
2014,04,28,08,40,8.10
2014,04,28,08,41,8.20
2014,04,28,08,42,8.30
2014,04,28,08,43,8.30
2014,04,28,08,44,8.40
2014,04,28,08,45,8.50
2014,04,28,08,46,8.60
2014,04,28,08,47,8.60
2014,04,28,08,48,8.70
2014,04,28,08,49,8.80
2014,04,28,08,50,8.80
2014,04,28,08,51,8.90
2014,04,28,08,52,8.90
2014,04,28,08,53,9.00
2014,04,28,08,54,9.00
2014,04,28,08,55,9.10
2014,04,28,08,56,9.10
2014,04,28,08,57,9.20
2014,04,28,08,58,9.20
2014,04,28,08,59,9.30
2014,04,28,09,00,9.30
2014,04,28,09,01,9.30
2014,04,28,09,02,9.40
2014,04,28,09,03,9.40
2014,04,28,09,04,9.40
2014,04,28,09,05,9.50
2014,04,28,09,06,9.50
2014,04,28,09,07,9.50
2014,04,28,09,08,9.50
2014,04,28,09,09,9.60
2014,04,28,09,10,9.60
2014,04,28,09,11,9.60
2014,04,28,09,12,9.70
2014,04,28,09,13,9.70
2014,04,28,09,14,9.80
2014,04,28,09,15,9.80
2014,04,28,09,16,9.80
2014,04,28,09,17,9.70
2014,04,28,09,18,9.80
2014,04,28,09,19,9.70
2014,04,28,09,20,9.70
2014,04,28,09,21,9.70
2014,04,28,09,22,9.70
2014,04,28,09,23,9.70
2014,04,28,09,24,9.60
2014,04,28,09,25,9.70
2014,04,28,09,26,9.70
2014,04,28,09,27,9.70
2014,04,28,09,28,9.70
2014,04,28,09,29,9.70
2014,04,28,09,30,9.70
2014,04,28,09,31,9.70
2014,04,28,09,32,9.70
2014,04,28,09,33,9.70
2014,04,28,09,34,9.70
2014,04,28,09,35,9.80
2014,04,28,09,36,9.80
2014,04,28,09,37,9.90
2014,04,28,09,38,9.90
2014,04,28,09,39,9.90
2014,04,28,09,40,10.00
2014,04,28,09,41,10.10
2014,04,28,09,42,10.10
2014,04,28,09,43,10.10
2014,04,28,09,44,10.10
2014,04,28,09,45,10.10
2014,04,28,09,46,10.10
2014,04,28,09,47,10.10
2014,04,28,09,48,10.10
2014,04,28,09,49,10.10
2014,04,28,09,50,10.20
2014,04,28,09,51,10.20
2014,04,28,09,52,10.30
2014,04,28,09,53,10.30
2014,04,28,09,54,10.30
2014,04,28,09,55,10.30
2014,04,28,09,56,10.40
2014,04,28,09,57,10.40
2014,04,28,09,58,10.50
2014,04,28,09,59,10.50
2014,04,28,10,00,10.50
2014,04,28,10,01,10.50
2014,04,28,10,02,10.50
2014,04,28,10,03,10.50
2014,04,28,10,04,10.50
2014,04,28,10,05,10.50
2014,04,28,10,06,10.60
2014,04,28,10,07,10.60
2014,04,28,10,08,10.70
2014,04,28,10,09,10.80
2014,04,28,10,10,10.80
2014,04,28,10,11,10.90
2014,04,28,10,12,10.90
2014,04,28,10,13,11.00
2014,04,28,10,14,11.00
2014,04,28,10,15,11.10
2014,04,28,10,16,11.10
2014,04,28,10,17,11.10
2014,04,28,10,18,11.10
2014,04,28,10,19,11.10
2014,04,28,10,20,11.10
2014,04,28,10,21,11.10
2014,04,28,10,22,11.10
2014,04,28,10,23,11.10
2014,04,28,10,24,11.10
2014,04,28,10,25,11.10
2014,04,28,10,26,11.00
2014,04,28,10,27,11.00
2014,04,28,10,28,11.00
2014,04,28,10,29,11.00
2014,04,28,10,30,10.90
2014,04,28,10,31,10.90
2014,04,28,10,32,10.80
2014,04,28,10,33,10.90
2014,04,28,10,34,10.90
2014,04,28,10,35,11.00
2014,04,28,10,36,10.90
2014,04,28,10,37,10.90
2014,04,28,10,38,10.90
2014,04,28,10,39,10.80
2014,04,28,10,40,10.80
2014,04,28,10,41,10.80
2014,04,28,10,42,10.80
2014,04,28,10,43,10.70
2014,04,28,10,44,10.60
2014,04,28,10,45,10.60
2014,04,28,10,46,10.60
2014,04,28,10,47,10.60
2014,04,28,10,48,10.50
2014,04,28,10,49,10.50
2014,04,28,10,50,10.50
2014,04,28,10,51,10.50
2014,04,28,10,52,10.40
2014,04,28,10,53,10.40
2014,04,28,10,54,10.40
2014,04,28,10,55,10.30
2014,04,28,10,56,10.30
2014,04,28,10,57,10.30
2014,04,28,10,58,10.30
2014,04,28,10,59,10.30
2014,04,28,11,00,10.30
2014,04,28,11,01,10.30
2014,04,28,11,02,10.40
2014,04,28,11,03,10.40
2014,04,28,11,04,10.40
2014,04,28,11,05,10.40
2014,04,28,11,06,10.30
2014,04,28,11,07,10.30
2014,04,28,11,08,10.20
2014,04,28,11,09,10.20
2014,04,28,11,10,10.20
2014,04,28,11,11,10.30
2014,04,28,11,12,10.30
2014,04,28,11,13,10.40
2014,04,28,11,14,10.40
2014,04,28,11,15,10.50
2014,04,28,11,16,10.50
2014,04,28,11,17,10.60
2014,04,28,11,18,10.60
2014,04,28,11,19,10.60
2014,04,28,11,20,10.60
2014,04,28,11,21,10.60
2014,04,28,11,22,10.50
2014,04,28,11,23,10.50
2014,04,28,11,24,10.50
2014,04,28,11,25,10.60
2014,04,28,11,26,10.60
2014,04,28,11,27,10.60
2014,04,28,11,28,10.60
2014,04,28,11,29,10.60
2014,04,28,11,30,10.70
2014,04,28,11,31,10.70
2014,04,28,11,32,10.70
2014,04,28,11,33,10.70
2014,04,28,11,34,10.70
2014,04,28,11,35,10.70
2014,04,28,11,36,10.80
2014,04,28,11,37,10.90
2014,04,28,11,38,10.90
2014,04,28,11,39,11.00
2014,04,28,11,40,11.00
2014,04,28,11,41,11.00
2014,04,28,11,42,11.10
2014,04,28,11,43,11.20
2014,04,28,11,44,11.10
2014,04,28,11,45,11.10
2014,04,28,11,46,11.10
2014,04,28,11,47,11.00
2014,04,28,11,48,10.90
2014,04,28,11,49,10.80
2014,04,28,11,50,10.80
2014,04,28,11,51,10.80
2014,04,28,11,52,10.80
2014,04,28,11,53,10.80
2014,04,28,11,54,10.70
2014,04,28,11,55,10.60
2014,04,28,11,56,10.60
2014,04,28,11,57,10.60
2014,04,28,11,58,10.60
2014,04,28,11,59,10.60
2014,04,28,12,00,10.60
2014,04,28,12,01,10.70
2014,04,28,12,02,10.80
2014,04,28,12,03,10.90
2014,04,28,12,04,11.00
2014,04,28,12,05,11.00
2014,04,28,12,06,11.10
2014,04,28,12,07,11.10
2014,04,28,12,08,11.10
2014,04,28,12,09,11.10
2014,04,28,12,10,11.10
2014,04,28,12,11,11.00
2014,04,28,12,12,10.90
2014,04,28,12,13,10.90
2014,04,28,12,14,10.90
2014,04,28,12,15,10.80
2014,04,28,12,16,10.80
2014,04,28,12,17,10.80
2014,04,28,12,18,10.80
2014,04,28,12,19,10.90
2014,04,28,12,20,11.00
2014,04,28,12,21,11.10
2014,04,28,12,22,11.20
2014,04,28,12,23,11.30
2014,04,28,12,24,11.30
2014,04,28,12,25,11.30
2014,04,28,12,26,11.30
2014,04,28,12,27,11.20
2014,04,28,12,28,11.20
2014,04,28,12,29,11.20
2014,04,28,12,30,11.30
2014,04,28,12,31,11.30
2014,04,28,12,32,11.30
2014,04,28,12,33,11.30
2014,04,28,12,34,11.40
2014,04,28,12,35,11.40
2014,04,28,12,36,11.40
2014,04,28,12,37,11.50
2014,04,28,12,38,11.50
2014,04,28,12,39,11.50
2014,04,28,12,40,11.50
2014,04,28,12,41,11.50
2014,04,28,12,42,11.50
2014,04,28,12,43,11.50
2014,04,28,12,44,11.50
2014,04,28,12,45,11.50
2014,04,28,12,46,11.60
2014,04,28,12,47,11.60
2014,04,28,12,48,11.70
2014,04,28,12,49,11.70
2014,04,28,12,50,11.60
2014,04,28,12,51,11.60
2014,04,28,12,52,11.50
2014,04,28,12,53,11.50
2014,04,28,12,54,11.50
2014,04,28,12,55,11.40
2014,04,28,12,56,11.40
2014,04,28,12,57,11.40
2014,04,28,12,58,11.40
2014,04,28,12,59,11.40
2014,04,28,13,00,11.40
2014,04,28,13,01,11.40
2014,04,28,13,02,11.50
2014,04,28,13,03,11.50
2014,04,28,13,04,11.50
2014,04,28,13,05,11.60
2014,04,28,13,06,11.60
2014,04,28,13,07,11.60
2014,04,28,13,08,11.60
2014,04,28,13,09,11.50
2014,04,28,13,10,11.40
2014,04,28,13,11,11.40
2014,04,28,13,12,11.40
2014,04,28,13,13,11.40
2014,04,28,13,14,11.40
2014,04,28,13,15,11.40
2014,04,28,13,16,11.40
2014,04,28,13,17,11.40
2014,04,28,13,18,11.40
2014,04,28,13,19,11.40
2014,04,28,13,20,11.30
2014,04,28,13,21,11.40
2014,04,28,13,22,11.50
2014,04,28,13,23,11.50
2014,04,28,13,24,11.60
2014,04,28,13,25,11.70
2014,04,28,13,26,11.70
2014,04,28,13,27,11.70
2014,04,28,13,28,11.70
2014,04,28,13,29,11.60
2014,04,28,13,30,11.60
2014,04,28,13,31,11.60
2014,04,28,13,32,11.60
2014,04,28,13,33,11.60
2014,04,28,13,34,11.60
2014,04,28,13,35,11.60
2014,04,28,13,36,11.50
2014,04,28,13,37,11.50
2014,04,28,13,38,11.40
2014,04,28,13,39,11.50
2014,04,28,13,40,11.50
2014,04,28,13,41,11.50
2014,04,28,13,42,11.50
2014,04,28,13,43,11.50
2014,04,28,13,44,11.50
2014,04,28,13,45,11.50
2014,04,28,13,46,11.60
2014,04,28,13,47,11.70
2014,04,28,13,48,11.80
2014,04,28,13,49,11.90
2014,04,28,13,50,12.00
2014,04,28,13,51,12.00
2014,04,28,13,52,11.90
2014,04,28,13,53,11.80
2014,04,28,13,54,11.80
2014,04,28,13,55,11.80
2014,04,28,13,56,11.80
2014,04,28,13,57,11.80
2014,04,28,13,58,11.80
2014,04,28,13,59,11.80
2014,04,28,14,00,11.80
2014,04,28,14,01,11.90
2014,04,28,14,02,12.00
2014,04,28,14,03,12.00
2014,04,28,14,04,12.10
2014,04,28,14,05,12.10
2014,04,28,14,06,12.20
2014,04,28,14,07,12.30
2014,04,28,14,08,12.40
2014,04,28,14,09,12.40
2014,04,28,14,10,12.40
2014,04,28,14,11,12.40
2014,04,28,14,12,12.30
2014,04,28,14,13,12.30
2014,04,28,14,14,12.30
2014,04,28,14,15,12.30
2014,04,28,14,16,12.40
2014,04,28,14,17,12.40
2014,04,28,14,18,12.40
2014,04,28,14,19,12.30
2014,04,28,14,20,12.30
2014,04,28,14,21,12.30
2014,04,28,14,22,12.30
2014,04,28,14,23,12.20
2014,04,28,14,24,12.20
2014,04,28,14,25,12.20
2014,04,28,14,26,12.30
2014,04,28,14,27,12.30
2014,04,28,14,28,12.30
2014,04,28,14,29,12.30
2014,04,28,14,30,12.30
2014,04,28,14,31,12.30
2014,04,28,14,32,12.30
2014,04,28,14,33,12.20
2014,04,28,14,34,12.10
2014,04,28,14,35,12.10
2014,04,28,14,36,12.20
2014,04,28,14,37,12.20
2014,04,28,14,38,12.10
2014,04,28,14,39,12.10
2014,04,28,14,40,12.20
2014,04,28,14,41,12.20
2014,04,28,14,42,12.20
2014,04,28,14,43,12.20
2014,04,28,14,44,12.20
2014,04,28,14,45,12.30
2014,04,28,14,46,12.30
2014,04,28,14,47,12.30
2014,04,28,14,48,12.30
2014,04,28,14,49,12.30
2014,04,28,14,50,12.30
2014,04,28,14,51,12.20
2014,04,28,14,52,12.20
2014,04,28,14,53,12.20
2014,04,28,14,54,12.20
2014,04,28,14,55,12.20
2014,04,28,14,56,12.20
2014,04,28,14,57,12.20
2014,04,28,14,58,12.20
2014,04,28,14,59,12.20
2014,04,28,15,00,12.20
2014,04,28,15,01,12.20
2014,04,28,15,02,12.20
2014,04,28,15,03,12.20
2014,04,28,15,04,12.20
2014,04,28,15,05,12.20
2014,04,28,15,06,12.20
2014,04,28,15,07,12.30
2014,04,28,15,08,12.30
2014,04,28,15,09,12.40
2014,04,28,15,10,12.30
2014,04,28,15,11,12.30
2014,04,28,15,12,12.30
2014,04,28,15,13,12.30
2014,04,28,15,14,12.30
2014,04,28,15,15,12.30
2014,04,28,15,16,12.30
2014,04,28,15,17,12.40
2014,04,28,15,18,12.40
2014,04,28,15,19,12.50
2014,04,28,15,20,12.50
2014,04,28,15,21,12.40
2014,04,28,15,22,12.30
2014,04,28,15,23,12.30
2014,04,28,15,24,12.20
2014,04,28,15,25,12.20
2014,04,28,15,26,12.20
2014,04,28,15,27,12.20
2014,04,28,15,28,12.30
2014,04,28,15,29,12.30
2014,04,28,15,30,12.30
2014,04,28,15,31,12.40
2014,04,28,15,32,12.50
2014,04,28,15,33,12.50
2014,04,28,15,34,12.60
2014,04,28,15,35,12.70
2014,04,28,15,36,12.80
2014,04,28,15,37,12.90
2014,04,28,15,38,13.00
2014,04,28,15,39,13.00
2014,04,28,15,40,13.10
2014,04,28,15,41,13.10
2014,04,28,15,42,13.10
2014,04,28,15,43,13.00
2014,04,28,15,44,12.90
2014,04,28,15,45,12.90
2014,04,28,15,46,12.90
2014,04,28,15,47,12.80
2014,04,28,15,48,12.80
2014,04,28,15,49,12.70
2014,04,28,15,50,12.50
2014,04,28,15,51,12.40
2014,04,28,15,52,12.40
2014,04,28,15,53,12.40
2014,04,28,15,54,12.40
2014,04,28,15,55,12.50
2014,04,28,15,56,12.50
2014,04,28,15,57,12.50
2014,04,28,15,58,12.50
2014,04,28,15,59,12.40
2014,04,28,16,00,12.30
2014,04,28,16,01,12.20
2014,04,28,16,02,12.20
2014,04,28,16,03,12.10
2014,04,28,16,04,12.10
2014,04,28,16,05,12.00
2014,04,28,16,06,11.90
2014,04,28,16,07,11.90
2014,04,28,16,08,11.80
2014,04,28,16,09,11.80
2014,04,28,16,10,11.80
2014,04,28,16,11,11.70
2014,04,28,16,12,11.70
2014,04,28,16,13,11.80
2014,04,28,16,14,11.80
2014,04,28,16,15,11.90
2014,04,28,16,16,12.00
2014,04,28,16,17,12.00
2014,04,28,16,18,12.10
2014,04,28,16,19,12.20
2014,04,28,16,20,12.20
2014,04,28,16,21,12.20
2014,04,28,16,22,12.20
2014,04,28,16,23,12.30
2014,04,28,16,24,12.30
2014,04,28,16,25,12.40
2014,04,28,16,26,12.50
2014,04,28,16,27,12.60
2014,04,28,16,28,12.60
2014,04,28,16,29,12.60
2014,04,28,16,30,12.70
2014,04,28,16,31,12.80
2014,04,28,16,32,12.80
2014,04,28,16,33,12.80
2014,04,28,16,34,12.80
2014,04,28,16,35,12.90
2014,04,28,16,36,12.90
2014,04,28,16,37,12.80
2014,04,28,16,38,12.80
2014,04,28,16,39,12.70
2014,04,28,16,40,12.70
2014,04,28,16,41,12.60
2014,04,28,16,42,12.60
2014,04,28,16,43,12.60
2014,04,28,16,44,12.60
2014,04,28,16,45,12.60
2014,04,28,16,46,12.60
2014,04,28,16,47,12.60
2014,04,28,16,48,12.70
2014,04,28,16,49,12.70
2014,04,28,16,50,12.60
2014,04,28,16,51,12.60
2014,04,28,16,52,12.50
2014,04,28,16,53,12.50
2014,04,28,16,54,12.50
2014,04,28,16,55,12.50
2014,04,28,16,56,12.60
2014,04,28,16,57,12.60
2014,04,28,16,58,12.70
2014,04,28,16,59,12.70
2014,04,28,17,00,12.70
2014,04,28,17,01,12.70
2014,04,28,17,02,12.70
2014,04,28,17,03,12.70
2014,04,28,17,04,12.60
2014,04,28,17,05,12.60
2014,04,28,17,06,12.50
2014,04,28,17,07,12.40
2014,04,28,17,08,12.40
2014,04,28,17,09,12.30
2014,04,28,17,10,12.30
2014,04,28,17,11,12.30
2014,04,28,17,12,12.30
2014,04,28,17,13,12.30
2014,04,28,17,14,12.30
2014,04,28,17,15,12.30
2014,04,28,17,16,12.30
2014,04,28,17,17,12.30
2014,04,28,17,18,12.30
2014,04,28,17,19,12.40
2014,04,28,17,20,12.50
2014,04,28,17,21,12.50
2014,04,28,17,22,12.50
2014,04,28,17,23,12.50
2014,04,28,17,24,12.50
2014,04,28,17,25,12.50
2014,04,28,17,26,12.50
2014,04,28,17,27,12.50
2014,04,28,17,28,12.50
2014,04,28,17,29,12.50
2014,04,28,17,30,12.50
2014,04,28,17,31,12.50
2014,04,28,17,32,12.50
2014,04,28,17,33,12.40
2014,04,28,17,34,12.40
2014,04,28,17,35,12.30
2014,04,28,17,36,12.30
2014,04,28,17,37,12.30
2014,04,28,17,38,12.30
2014,04,28,17,39,12.20
2014,04,28,17,40,12.20
2014,04,28,17,41,12.10
2014,04,28,17,42,12.10
2014,04,28,17,43,12.10
2014,04,28,17,44,12.10